Powrót do katalogu

POLAR

AktywnyNaukaHEO
NORAD 23802·PAYLOAD·🇺🇸 United States

Wystrzelony Feb 24, 1996 z Vandenberg Space Force Base

Loading…

Następne Przeloty (najbliższe 24 godziny)

TLE

ŚwieżeSource: Space-Track

Epoka: Sep 13, 2026, 14:45 UTC

1 23802U 96013A   26256.61519253  .00000114  00000-0  00000-0 0  9993
2 23802  79.9839 225.9890 6560748 206.0484  96.0357  1.29845780146002

Śledź POLAR w czasie rzeczywistym z AllMySat

Download on the App Store